• In Deutschland
  • Länderverzeichnis
  • Für 7 Tage
  • Wassertemperatur
  • Satellitenkarten
  • Wetterkarte
  • Widgets
  • user-avatar
    Anmelden

    Stündliche Wetter Nayarit

    Heute, 16 Oktober, Dienstag

    Zeit Temperatur Niederschläge Wind Luftdruck Luftfeuchtigkeit
    00:00 +26°C° 0 mm 1 m/S 738 mmHg 87%
    01:00 +26°C° 0 mm 1 m/S 738 mmHg 86%
    02:00 +26°C° 0 mm 1 m/S 738 mmHg 86%
    03:00 +26°C° 0 mm 1 m/S 738 mmHg 85%
    04:00 +26°C° 0 mm 1 m/S 738 mmHg 85%
    05:00 +25°C° 0 mm 1 m/S 738 mmHg 84%
    06:00 +27°C° 0 mm 1 m/S 738 mmHg 79%
    07:00 +29°C° 0 mm 1 m/S 738 mmHg 73%
    08:00 +28°C° 0 mm 0 m/S 738 mmHg 68%
    09:00 +32°C° 0 mm 1 m/S 738 mmHg 60%
    10:00 +35°C° 0 mm 1 m/S 738 mmHg 53%
    11:00 +37°C° 0 mm 1 m/S 738 mmHg 45%
    12:00 +36°C° 0.3 mm 1 m/S 738 mmHg 51%
    13:00 +35°C° 0.3 mm 2 m/S 737 mmHg 56%
    14:00 +34°C° 0.3 mm 2 m/S 736 mmHg 62%
    15:00 +31°C° 1.5 mm 2 m/S 736 mmHg 71%
    16:00 +30°C° 1.5 mm 2 m/S 737 mmHg 81%
    17:00 +28°C° 1.5 mm 1 m/S 737 mmHg 90%
    18:00 +27°C° 0.9 mm 1 m/S 737 mmHg 92%
    19:00 +27°C° 0.9 mm 1 m/S 738 mmHg 94%
    20:00 +24°C° 0.9 mm 0 m/S 739 mmHg 96%
    21:00 +26°C° 1 mm 1 m/S 739 mmHg 96%
    22:00 +26°C° 1 mm 1 m/S 739 mmHg 96%
    23:00 +26°C° 1 mm 1 m/S 740 mmHg 96%

    Morgen, 17 Oktober, Mittwoch

    Zeit Temperatur Niederschläge Wind Luftdruck Luftfeuchtigkeit
    00:00 +26°C° 1.3 mm 1 m/S 740 mmHg 96%
    01:00 +25°C° 1.3 mm 1 m/S 739 mmHg 96%
    02:00 +25°C° 1.3 mm 1 m/S 739 mmHg 95%
    03:00 +25°C° 0.3 mm 1 m/S 739 mmHg 95%
    04:00 +25°C° 0.3 mm 1 m/S 739 mmHg 94%
    05:00 +25°C° 0.3 mm 1 m/S 739 mmHg 94%
    06:00 +26°C° 0.1 mm 1 m/S 739 mmHg 90%
    07:00 +26°C° 0.1 mm 1 m/S 740 mmHg 87%
    08:00 +27°C° 0.1 mm 1 m/S 740 mmHg 83%
    09:00 +28°C° 0.5 mm 1 m/S 740 mmHg 78%
    10:00 +29°C° 0.5 mm 1 m/S 740 mmHg 73%
    11:00 +31°C° 0.5 mm 1 m/S 740 mmHg 68%
    12:00 +30°C° 0.2 mm 1 m/S 740 mmHg 71%
    13:00 +29°C° 0.2 mm 1 m/S 739 mmHg 75%
    14:00 +28°C° 0.2 mm 1 m/S 738 mmHg 78%
    15:00 +28°C° 0 mm 1 m/S 738 mmHg 78%
    16:00 +28°C° 0 mm 1 m/S 738 mmHg 78%
    17:00 +28°C° 0 mm 1 m/S 738 mmHg 77%
    18:00 +27°C° 0 mm 1 m/S 739 mmHg 81%
    19:00 +24°C° 0 mm 0 m/S 740 mmHg 85%
    20:00 +23°C° 0 mm 0 m/S 740 mmHg 89%
    21:00 +25°C° 0 mm 1 m/S 740 mmHg 89%
    22:00 +25°C° 0 mm 1 m/S 740 mmHg 88%
    23:00 +25°C° 0 mm 1 m/S 741 mmHg 87%

    übermorgen, 18 Oktober, Donnerstag

    Zeit Temperatur Niederschläge Wind Luftdruck Luftfeuchtigkeit
    00:00 +25°C° 0.1 mm 1 m/S 740 mmHg 86%
    01:00 +24°C° 0.1 mm 1 m/S 740 mmHg 86%
    02:00 +24°C° 0.1 mm 1 m/S 740 mmHg 85%
    03:00 +24°C° 0.2 mm 1 m/S 740 mmHg 84%
    04:00 +24°C° 0.2 mm 1 m/S 740 mmHg 83%
    05:00 +24°C° 0.2 mm 1 m/S 740 mmHg 83%
    06:00 +26°C° 0 mm 1 m/S 740 mmHg 77%
    07:00 +28°C° 0 mm 1 m/S 741 mmHg 71%
    08:00 +30°C° 0 mm 1 m/S 741 mmHg 65%
    09:00 +32°C° 0 mm 1 m/S 741 mmHg 56%
    10:00 +35°C° 0 mm 1 m/S 741 mmHg 46%
    11:00 +39°C° 0 mm 1 m/S 740 mmHg 37%
    12:00 +39°C° 0 mm 1 m/S 739 mmHg 37%
    13:00 +39°C° 0 mm 2 m/S 738 mmHg 38%
    14:00 +39°C° 0 mm 2 m/S 737 mmHg 39%
    15:00 +37°C° 0 mm 2 m/S 737 mmHg 48%
    16:00 +35°C° 0 mm 2 m/S 737 mmHg 57%
    17:00 +31°C° 0 mm 2 m/S 737 mmHg 66%
    18:00 +30°C° 0 mm 1 m/S 738 mmHg 74%
    19:00 +28°C° 0 mm 1 m/S 739 mmHg 81%
    20:00 +25°C° 0 mm 0 m/S 739 mmHg 88%
    21:00 +24°C° 0 mm 0 m/S 739 mmHg 88%
    22:00 +26°C° 0 mm 1 m/S 740 mmHg 87%
    23:00 +26°C° 0 mm 1 m/S 740 mmHg 86%

    19 Oktober, Freitag

    Zeit Temperatur Niederschläge Wind Luftdruck Luftfeuchtigkeit
    00:00 +26°C° 0.1 mm 1 m/S 739 mmHg 86%
    01:00 +26°C° 0.1 mm 1 m/S 739 mmHg 85%
    02:00 +26°C° 0.1 mm 1 m/S 739 mmHg 85%
    03:00 +26°C° 0.3 mm 1 m/S 739 mmHg 84%
    04:00 +26°C° 0.3 mm 1 m/S 739 mmHg 83%
    05:00 +25°C° 0.3 mm 1 m/S 739 mmHg 82%
    06:00 +27°C° 0 mm 1 m/S 740 mmHg 76%
    07:00 +29°C° 0 mm 1 m/S 740 mmHg 70%
    08:00 +30°C° 0 mm 1 m/S 740 mmHg 64%
    09:00 +33°C° 0 mm 1 m/S 740 mmHg 55%
    10:00 +36°C° 0 mm 1 m/S 740 mmHg 45%
    11:00 +40°C° 0 mm 1 m/S 740 mmHg 35%
    12:00 +40°C° 0 mm 1 m/S 739 mmHg 36%
    13:00 +40°C° 0 mm 1 m/S 738 mmHg 37%
    14:00 +40°C° 0 mm 2 m/S 737 mmHg 38%
    15:00 +37°C° 0 mm 2 m/S 737 mmHg 47%
    16:00 +35°C° 0 mm 2 m/S 737 mmHg 56%
    17:00 +32°C° 0 mm 2 m/S 737 mmHg 65%
    18:00 +31°C° 2.9 mm 1 m/S 738 mmHg 73%
    19:00 +29°C° 2.9 mm 1 m/S 739 mmHg 80%
    20:00 +25°C° 2.9 mm 0 m/S 739 mmHg 88%
    21:00 +25°C° 1.9 mm 0 m/S 739 mmHg 88%
    22:00 +25°C° 1.9 mm 0 m/S 739 mmHg 87%
    23:00 +27°C° 1.9 mm 1 m/S 739 mmHg 87%

    20 Oktober, Samstag

    Zeit Temperatur Niederschläge Wind Luftdruck Luftfeuchtigkeit
    00:00 +27°C° 0 mm 1 m/S 739 mmHg 86%
    01:00 +27°C° 0 mm 1 m/S 739 mmHg 85%
    02:00 +27°C° 0 mm 1 m/S 739 mmHg 84%
    03:00 +27°C° 0.6 mm 1 m/S 739 mmHg 83%
    04:00 +26°C° 0.6 mm 1 m/S 739 mmHg 83%
    05:00 +26°C° 0.6 mm 1 m/S 739 mmHg 82%
    06:00 +28°C° 0 mm 1 m/S 740 mmHg 76%
    07:00 +29°C° 0 mm 1 m/S 740 mmHg 70%
    08:00 +31°C° 0 mm 1 m/S 740 mmHg 64%
    09:00 +34°C° 0 mm 1 m/S 740 mmHg 54%
    10:00 +37°C° 0 mm 1 m/S 739 mmHg 44%
    11:00 +40°C° 0 mm 1 m/S 739 mmHg 34%
    12:00 +41°C° 0 mm 1 m/S 738 mmHg 33%
    13:00 +41°C° 0 mm 1 m/S 738 mmHg 32%
    14:00 +41°C° 0 mm 2 m/S 737 mmHg 32%
    15:00 +39°C° 0.6 mm 2 m/S 737 mmHg 41%
    16:00 +36°C° 0.6 mm 2 m/S 737 mmHg 51%
    17:00 +33°C° 0.6 mm 1 m/S 737 mmHg 60%
    18:00 +31°C° 3.3 mm 1 m/S 738 mmHg 65%
    19:00 +30°C° 3.3 mm 1 m/S 738 mmHg 71%
    20:00 +28°C° 3.3 mm 1 m/S 739 mmHg 76%
    21:00 +28°C° 1.1 mm 1 m/S 739 mmHg 76%
    22:00 +28°C° 1.1 mm 1 m/S 740 mmHg 76%
    23:00 +28°C° 1.1 mm 1 m/S 740 mmHg 76%

    21 Oktober, Sonntag

    Zeit Temperatur Niederschläge Wind Luftdruck Luftfeuchtigkeit
    00:00 +27°C° 0.1 mm 1 m/S 739 mmHg 75%
    01:00 +27°C° 0.1 mm 1 m/S 739 mmHg 74%
    02:00 +27°C° 0.1 mm 1 m/S 739 mmHg 73%
    03:00 +27°C° 0 mm 2 m/S 739 mmHg 71%
    04:00 +26°C° 0 mm 2 m/S 739 mmHg 70%
    05:00 +26°C° 0 mm 2 m/S 739 mmHg 68%
    06:00 +28°C° 0 mm 2 m/S 739 mmHg 64%
    07:00 +29°C° 0 mm 2 m/S 740 mmHg 59%
    08:00 +30°C° 0 mm 2 m/S 740 mmHg 55%
    09:00 +34°C° 0 mm 2 m/S 740 mmHg 47%
    10:00 +36°C° 0 mm 2 m/S 740 mmHg 40%
    11:00 +39°C° 0 mm 2 m/S 739 mmHg 32%
    12:00 +40°C° 0 mm 1 m/S 739 mmHg 31%
    13:00 +41°C° 0 mm 1 m/S 738 mmHg 30%
    14:00 +42°C° 0 mm 1 m/S 737 mmHg 29%
    15:00 +39°C° 0 mm 1 m/S 738 mmHg 37%
    16:00 +35°C° 0 mm 1 m/S 738 mmHg 45%
    17:00 +33°C° 0 mm 1 m/S 738 mmHg 53%
    18:00 +31°C° 0 mm 1 m/S 739 mmHg 58%
    19:00 +30°C° 0 mm 1 m/S 739 mmHg 63%
    20:00 +28°C° 0 mm 1 m/S 740 mmHg 68%
    21:00 +28°C° 0 mm 1 m/S 740 mmHg 67%
    22:00 +28°C° 0 mm 1 m/S 740 mmHg 67%
    23:00 +27°C° 0 mm 1 m/S 740 mmHg 66%
    Mehr zeigen